RPA3555 KEWR-CYYZ

Flight info

Callsign RPA3555
Flight time 1h 4m
Altitude 26000
Route GAYEL Q818 WOZEE LINNG3
Aircraft A320/M-SDE3FGHIRWY/LB1

Departure

Time 2026-05-06 14:43
Airport Newark Liberty International Airport (KEWR)

Arrival

Time 2026-05-06 15:47
Airport Toronto Pearson International Airport (CYYZ)
Time Latitude Longitude Altitude Speed Heading
2026-05-06 14:20 40.69537 -74.17566 22 ft 0 kts 203°
2026-05-06 14:29 40.69540 -74.17564 20 ft 2 kts 203°
2026-05-06 14:30 40.69555 -74.17555 22 ft 2 kts 194°
2026-05-06 14:30 40.69571 -74.17555 21 ft 2 kts 147°
2026-05-06 14:30 40.69583 -74.17569 21 ft 2 kts 116°
2026-05-06 14:30 40.69584 -74.17573 22 ft 0 kts 115°
2026-05-06 14:34 40.69584 -74.17572 22 ft 0 kts 115°
2026-05-06 14:34 40.69582 -74.17566 23 ft 1 kts 111°
2026-05-06 14:35 40.69582 -74.17555 21 ft 1 kts 94°
2026-05-06 14:35 40.69583 -74.17545 20 ft 1 kts 77°
2026-05-06 14:35 40.69587 -74.17535 20 ft 2 kts 64°
2026-05-06 14:35 40.69594 -74.17523 20 ft 5 kts 51°
2026-05-06 14:36 40.69637 -74.17470 21 ft 6 kts 42°
2026-05-06 14:36 40.69638 -74.17468 21 ft 0 kts 42°
2026-05-06 14:36 40.69645 -74.17461 20 ft 4 kts 41°
2026-05-06 14:36 40.69664 -74.17439 21 ft 3 kts 40°
2026-05-06 14:37 40.69691 -74.17409 21 ft 8 kts 40°
2026-05-06 14:37 40.69733 -74.17361 22 ft 7 kts 40°
2026-05-06 14:37 40.69770 -74.17320 22 ft 8 kts 40°
2026-05-06 14:37 40.69823 -74.17257 23 ft 11 kts 44°
2026-05-06 14:38 40.69844 -74.17184 22 ft 9 kts 109°
2026-05-06 14:38 40.69787 -74.17121 21 ft 14 kts 152°
2026-05-06 14:38 40.69695 -74.17057 21 ft 10 kts 154°
2026-05-06 14:38 40.69634 -74.17007 20 ft 10 kts 124°
2026-05-06 14:39 40.69644 -74.16923 20 ft 7 kts 70°
2026-05-06 14:39 40.69650 -74.16901 19 ft 4 kts 71°
2026-05-06 14:39 40.69668 -74.16825 19 ft 11 kts 72°
2026-05-06 14:39 40.69698 -74.16742 19 ft 10 kts 48°
2026-05-06 14:40 40.69765 -74.16690 16 ft 13 kts 26°
2026-05-06 14:40 40.69867 -74.16625 15 ft 17 kts 25°
2026-05-06 14:40 40.69964 -74.16563 16 ft 14 kts 26°
2026-05-06 14:40 40.70042 -74.16512 15 ft 8 kts 32°
2026-05-06 14:41 40.70062 -74.16461 17 ft 6 kts 84°
2026-05-06 14:41 40.70038 -74.16397 15 ft 10 kts 145°
2026-05-06 14:41 40.69961 -74.16404 14 ft 13 kts 205°
2026-05-06 14:41 40.69953 -74.16409 14 ft 0 kts 205°
2026-05-06 14:42 40.69907 -74.16437 15 ft 31 kts 205°
2026-05-06 14:42 40.69499 -74.16698 22 ft 96 kts 205°
2026-05-06 14:42 40.68728 -74.17186 25 ft 147 kts 205°
2026-05-06 14:43 40.67732 -74.17815 423 ft 161 kts 204°
2026-05-06 14:43 40.66742 -74.18438 1268 ft 154 kts 208°
2026-05-06 14:43 40.65775 -74.19083 1921 ft 163 kts 208°
2026-05-06 14:43 40.64781 -74.19952 2243 ft 183 kts 231°
2026-05-06 14:44 40.64280 -74.21609 2596 ft 213 kts 254°
2026-05-06 14:44 40.64057 -74.23615 3319 ft 225 kts 257°
2026-05-06 14:44 40.63881 -74.25669 4398 ft 228 kts 257°
2026-05-06 14:45 40.64271 -74.29925 6289 ft 263 kts 295°
2026-05-06 14:45 40.65719 -74.31569 7077 ft 293 kts 328°
2026-05-06 14:45 40.67762 -74.32226 7905 ft 310 kts 346°
2026-05-06 14:45 40.69937 -74.32435 8742 ft 317 kts 353°
2026-05-06 14:46 40.72167 -74.32461 9536 ft 324 kts 355°
2026-05-06 14:46 40.74449 -74.32438 10164 ft 336 kts 355°
2026-05-06 14:46 40.76870 -74.32443 10438 ft 359 kts 354°
2026-05-06 14:46 40.79425 -74.32497 10912 ft 372 kts 353°
2026-05-06 14:47 40.82035 -74.32589 11598 ft 377 kts 353°
2026-05-06 14:47 40.84669 -74.32712 12347 ft 381 kts 352°
2026-05-06 14:47 40.87330 -74.32859 13100 ft 384 kts 351°
2026-05-06 14:47 40.90011 -74.33013 13830 ft 387 kts 351°
2026-05-06 14:48 40.92711 -74.33172 14493 ft 390 kts 350°
2026-05-06 14:48 40.95341 -74.33807 15113 ft 380 kts 333°
2026-05-06 14:48 40.97668 -74.35263 15752 ft 374 kts 324°
2026-05-06 14:48 40.99995 -74.36913 16456 ft 376 kts 323°
2026-05-06 14:49 41.02304 -74.38562 17107 ft 378 kts 323°
2026-05-06 14:49 41.04598 -74.40198 17762 ft 380 kts 323°
2026-05-06 14:49 41.06937 -74.41866 18387 ft 383 kts 323°
2026-05-06 14:49 41.09290 -74.43544 18934 ft 385 kts 323°
2026-05-06 14:50 41.11653 -74.45229 19500 ft 387 kts 323°
2026-05-06 14:50 41.14037 -74.46925 20080 ft 389 kts 323°
2026-05-06 14:50 41.16435 -74.48629 20602 ft 393 kts 323°
2026-05-06 14:50 41.18066 -74.49788 20962 ft 395 kts 323°
2026-05-06 14:51 41.20492 -74.51520 21471 ft 397 kts 323°
2026-05-06 14:51 41.22933 -74.53265 22004 ft 399 kts 323°
2026-05-06 14:51 41.25390 -74.55021 22536 ft 402 kts 323°
2026-05-06 14:51 41.27857 -74.56784 23023 ft 404 kts 323°
2026-05-06 14:52 41.30328 -74.58582 23505 ft 404 kts 320°
2026-05-06 14:52 41.32455 -74.60901 23894 ft 390 kts 304°
2026-05-06 14:52 41.34184 -74.63613 24288 ft 390 kts 302°
2026-05-06 14:52 41.35919 -74.66389 24707 ft 391 kts 302°
2026-05-06 14:53 41.37653 -74.69183 25110 ft 392 kts 302°
2026-05-06 14:53 41.39391 -74.71992 25538 ft 394 kts 302°
2026-05-06 14:53 41.41139 -74.74812 25810 ft 395 kts 302°
2026-05-06 14:53 41.42890 -74.77624 25867 ft 394 kts 303°
2026-05-06 14:54 41.44640 -74.80440 25866 ft 394 kts 302°
2026-05-06 14:54 41.46384 -74.83251 25863 ft 394 kts 302°
2026-05-06 14:54 41.48130 -74.86071 25860 ft 394 kts 302°
2026-05-06 14:54 41.49870 -74.88890 25869 ft 394 kts 302°
2026-05-06 14:55 41.51613 -74.91712 25927 ft 396 kts 302°
2026-05-06 14:55 41.53368 -74.94558 26346 ft 398 kts 302°
2026-05-06 14:55 41.55130 -74.97409 26740 ft 399 kts 302°
2026-05-06 14:55 41.56900 -75.00272 27139 ft 400 kts 302°
2026-05-06 14:56 41.58675 -75.03148 27559 ft 401 kts 302°
2026-05-06 14:56 41.60451 -75.06033 27974 ft 403 kts 302°
2026-05-06 14:56 41.62233 -75.08927 28375 ft 404 kts 302°
2026-05-06 14:56 41.64018 -75.11834 28771 ft 405 kts 302°
2026-05-06 14:57 41.65801 -75.14751 29184 ft 405 kts 301°
2026-05-06 14:57 41.67590 -75.17675 29555 ft 407 kts 301°
2026-05-06 14:57 41.69386 -75.20604 29889 ft 408 kts 301°
2026-05-06 14:57 41.71189 -75.23547 30187 ft 410 kts 301°
2026-05-06 14:58 41.72995 -75.26501 30469 ft 411 kts 301°
2026-05-06 14:58 41.74810 -75.29469 30742 ft 413 kts 301°
2026-05-06 14:58 41.76630 -75.32448 31018 ft 414 kts 301°
2026-05-06 14:58 41.78455 -75.35439 31337 ft 414 kts 301°
2026-05-06 14:59 41.80275 -75.38430 31745 ft 413 kts 301°
2026-05-06 14:59 41.82085 -75.41409 32128 ft 411 kts 301°
2026-05-06 14:59 41.83889 -75.44374 32506 ft 411 kts 300°
2026-05-06 14:59 41.85672 -75.47305 32865 ft 410 kts 300°
2026-05-06 15:00 41.87469 -75.50261 33239 ft 408 kts 300°
2026-05-06 15:00 41.89259 -75.53213 33655 ft 406 kts 300°
2026-05-06 15:00 41.91032 -75.56146 34073 ft 403 kts 300°
2026-05-06 15:00 41.92795 -75.59062 34456 ft 400 kts 300°
2026-05-06 15:01 41.94432 -75.62023 34870 ft 388 kts 292°
2026-05-06 15:01 41.95746 -75.65142 35293 ft 381 kts 291°
2026-05-06 15:01 41.97027 -75.68234 35712 ft 376 kts 291°
2026-05-06 15:01 41.98296 -75.71291 36132 ft 372 kts 291°
2026-05-06 15:02 41.99549 -75.74309 36530 ft 368 kts 291°
2026-05-06 15:02 42.00787 -75.77292 36922 ft 363 kts 291°
2026-05-06 15:02 42.02009 -75.80245 37275 ft 360 kts 291°
2026-05-06 15:02 42.03222 -75.83180 37566 ft 358 kts 291°
2026-05-06 15:03 42.04428 -75.86097 37773 ft 357 kts 291°
2026-05-06 15:03 42.06825 -75.91909 37819 ft 354 kts 291°
2026-05-06 15:04 42.09208 -75.97701 37815 ft 353 kts 291°
2026-05-06 15:04 42.11588 -76.03493 37816 ft 353 kts 291°
2026-05-06 15:05 42.13966 -76.09284 37814 ft 353 kts 291°
2026-05-06 15:05 42.16233 -76.15134 37844 ft 349 kts 287°
2026-05-06 15:06 42.18162 -76.21148 37827 ft 350 kts 287°
2026-05-06 15:06 42.20089 -76.27143 37841 ft 351 kts 287°
2026-05-06 15:07 42.22027 -76.33200 37823 ft 352 kts 287°
2026-05-06 15:07 42.23967 -76.39271 37833 ft 352 kts 287°
2026-05-06 15:08 42.25913 -76.45352 37832 ft 353 kts 287°
2026-05-06 15:08 42.27854 -76.51440 37875 ft 353 kts 286°
2026-05-06 15:09 42.29790 -76.57536 37860 ft 353 kts 286°
2026-05-06 15:09 42.31720 -76.63638 37851 ft 353 kts 286°
2026-05-06 15:10 42.33648 -76.69749 37857 ft 354 kts 286°
2026-05-06 15:10 42.35577 -76.75868 37856 ft 354 kts 286°
2026-05-06 15:11 42.37505 -76.81993 37861 ft 354 kts 286°
2026-05-06 15:11 42.39425 -76.88119 37904 ft 354 kts 286°
2026-05-06 15:12 42.41342 -76.94249 37892 ft 354 kts 286°
2026-05-06 15:12 42.43243 -77.00339 37886 ft 354 kts 286°
2026-05-06 15:13 42.45157 -77.06478 37881 ft 354 kts 286°
2026-05-06 15:13 42.47071 -77.12624 37882 ft 354 kts 286°
2026-05-06 15:14 42.48975 -77.18764 37878 ft 353 kts 285°
2026-05-06 15:14 42.50877 -77.24924 37661 ft 355 kts 285°
2026-05-06 15:14 42.51828 -77.28012 37382 ft 356 kts 285°
2026-05-06 15:15 42.52785 -77.31119 37164 ft 358 kts 285°
2026-05-06 15:15 42.53746 -77.34246 36902 ft 360 kts 285°
2026-05-06 15:15 42.54709 -77.37384 36653 ft 361 kts 285°
2026-05-06 15:15 42.55678 -77.40531 36395 ft 363 kts 285°
2026-05-06 15:16 42.56652 -77.43694 36142 ft 364 kts 285°
2026-05-06 15:16 42.57629 -77.46874 35892 ft 365 kts 285°
2026-05-06 15:16 42.58605 -77.50057 35648 ft 366 kts 285°
2026-05-06 15:16 42.59582 -77.53254 35392 ft 367 kts 285°
2026-05-06 15:17 42.60559 -77.56457 35154 ft 368 kts 285°
2026-05-06 15:17 42.61540 -77.59675 34951 ft 369 kts 285°
2026-05-06 15:17 42.62521 -77.62900 34703 ft 370 kts 285°
2026-05-06 15:17 42.63505 -77.66136 34471 ft 371 kts 284°
2026-05-06 15:18 42.64490 -77.69376 34238 ft 371 kts 284°
2026-05-06 15:18 42.65474 -77.72618 34009 ft 372 kts 284°
2026-05-06 15:18 42.66455 -77.75869 33756 ft 371 kts 284°
2026-05-06 15:18 42.67398 -77.79130 33488 ft 370 kts 283°
2026-05-06 15:19 42.68312 -77.82394 33207 ft 370 kts 283°
2026-05-06 15:19 42.69200 -77.85626 32943 ft 370 kts 283°
2026-05-06 15:19 42.70098 -77.88900 32678 ft 370 kts 283°
2026-05-06 15:19 42.70998 -77.92172 32413 ft 370 kts 283°
2026-05-06 15:20 42.71903 -77.95453 32155 ft 371 kts 283°
2026-05-06 15:20 42.72812 -77.98726 31927 ft 369 kts 283°
2026-05-06 15:20 42.73722 -78.01996 31686 ft 369 kts 283°
2026-05-06 15:20 42.74629 -78.05256 31425 ft 369 kts 283°
2026-05-06 15:21 42.75531 -78.08518 31087 ft 369 kts 283°
2026-05-06 15:21 42.76434 -78.11787 30691 ft 369 kts 283°
2026-05-06 15:21 42.77338 -78.15057 30302 ft 369 kts 283°
2026-05-06 15:21 42.78242 -78.18321 29917 ft 370 kts 283°
2026-05-06 15:22 42.79142 -78.21591 29459 ft 369 kts 283°
2026-05-06 15:22 42.80039 -78.24851 29010 ft 367 kts 284°
2026-05-06 15:22 42.80933 -78.28095 28579 ft 364 kts 284°
2026-05-06 15:22 42.81818 -78.31310 28141 ft 361 kts 284°
2026-05-06 15:23 42.82695 -78.34505 27718 ft 359 kts 284°
2026-05-06 15:23 42.83560 -78.37679 27305 ft 356 kts 284°
2026-05-06 15:23 42.84418 -78.40837 26927 ft 355 kts 284°
2026-05-06 15:23 42.85274 -78.43986 26512 ft 354 kts 284°
2026-05-06 15:24 42.86128 -78.47115 26120 ft 350 kts 284°
2026-05-06 15:24 42.86975 -78.50201 25722 ft 344 kts 284°
2026-05-06 15:24 42.87803 -78.53231 25339 ft 338 kts 284°
2026-05-06 15:24 42.88613 -78.56206 24952 ft 334 kts 284°
2026-05-06 15:25 42.89437 -78.59272 24588 ft 350 kts 285°
2026-05-06 15:25 42.90279 -78.62403 24213 ft 353 kts 285°
2026-05-06 15:25 42.91117 -78.65506 23849 ft 353 kts 285°
2026-05-06 15:25 42.91964 -78.68634 23497 ft 351 kts 286°
2026-05-06 15:26 42.92820 -78.71748 23069 ft 350 kts 288°
2026-05-06 15:26 42.93967 -78.74691 22637 ft 354 kts 298°
2026-05-06 15:26 42.95484 -78.77355 22206 ft 357 kts 303°
2026-05-06 15:26 42.97068 -78.79952 21791 ft 355 kts 303°
2026-05-06 15:27 42.98640 -78.82541 21374 ft 352 kts 303°
2026-05-06 15:27 43.00183 -78.85094 21009 ft 345 kts 303°
2026-05-06 15:27 43.01694 -78.87609 20656 ft 339 kts 303°
2026-05-06 15:27 43.03174 -78.90070 20355 ft 332 kts 303°
2026-05-06 15:28 43.04625 -78.92482 20060 ft 325 kts 303°
2026-05-06 15:28 43.06050 -78.94852 19748 ft 320 kts 303°
2026-05-06 15:28 43.07453 -78.97188 19435 ft 315 kts 302°
2026-05-06 15:28 43.08831 -78.99489 19110 ft 311 kts 302°
2026-05-06 15:29 43.10194 -79.01770 18775 ft 308 kts 302°
2026-05-06 15:29 43.11547 -79.04034 18473 ft 306 kts 302°
2026-05-06 15:29 43.12893 -79.06283 18156 ft 304 kts 302°
2026-05-06 15:29 43.14232 -79.08518 17765 ft 303 kts 302°
2026-05-06 15:30 43.15561 -79.10740 17404 ft 301 kts 302°
2026-05-06 15:30 43.16885 -79.12958 17031 ft 300 kts 302°
2026-05-06 15:30 43.18205 -79.15170 16658 ft 299 kts 302°
2026-05-06 15:30 43.19522 -79.17380 16282 ft 300 kts 302°
2026-05-06 15:31 43.20840 -79.19598 15909 ft 301 kts 302°
2026-05-06 15:31 43.22160 -79.21823 15538 ft 301 kts 302°
2026-05-06 15:31 43.23482 -79.24046 15167 ft 301 kts 302°
2026-05-06 15:32 43.26126 -79.28491 14449 ft 303 kts 302°
2026-05-06 15:32 43.27461 -79.30735 14080 ft 304 kts 303°
2026-05-06 15:32 43.28814 -79.32960 13762 ft 305 kts 307°
2026-05-06 15:32 43.30433 -79.34883 13367 ft 312 kts 319°
2026-05-06 15:33 43.32356 -79.36313 12972 ft 318 kts 331°
2026-05-06 15:33 43.34498 -79.37274 12599 ft 320 kts 336°
2026-05-06 15:33 43.36590 -79.38154 12228 ft 317 kts 336°
2026-05-06 15:33 43.38686 -79.39039 11878 ft 311 kts 336°
2026-05-06 15:34 43.40710 -79.39891 11523 ft 297 kts 335°
2026-05-06 15:34 43.42649 -79.40714 11154 ft 286 kts 335°
2026-05-06 15:34 43.44515 -79.41514 10769 ft 277 kts 335°
2026-05-06 15:34 43.46289 -79.42404 10380 ft 262 kts 323°
2026-05-06 15:35 43.47655 -79.43904 10010 ft 243 kts 303°
2026-05-06 15:35 43.48470 -79.45845 9613 ft 228 kts 283°
2026-05-06 15:35 43.48725 -79.47934 9225 ft 219 kts 266°
2026-05-06 15:35 43.48619 -79.50022 8850 ft 219 kts 264°
2026-05-06 15:36 43.48504 -79.52123 8482 ft 221 kts 264°
2026-05-06 15:36 43.48389 -79.54244 8119 ft 223 kts 264°
2026-05-06 15:36 43.48274 -79.56378 7759 ft 225 kts 265°
2026-05-06 15:36 43.48157 -79.58530 7404 ft 226 kts 265°
2026-05-06 15:37 43.48038 -79.60696 7052 ft 228 kts 265°
2026-05-06 15:37 43.47920 -79.62876 6712 ft 229 kts 265°
2026-05-06 15:37 43.47803 -79.65066 6397 ft 230 kts 266°
2026-05-06 15:37 43.47683 -79.67270 6058 ft 232 kts 266°
2026-05-06 15:38 43.47554 -79.69484 5712 ft 232 kts 263°
2026-05-06 15:38 43.47156 -79.71636 5372 ft 233 kts 249°
2026-05-06 15:38 43.46365 -79.73586 5057 ft 233 kts 234°
2026-05-06 15:38 43.45286 -79.75224 4841 ft 228 kts 227°
2026-05-06 15:39 43.44201 -79.76784 4641 ft 223 kts 229°
2026-05-06 15:39 43.43456 -79.78588 4434 ft 215 kts 255°
2026-05-06 15:39 43.43129 -79.80556 4297 ft 207 kts 259°
2026-05-06 15:39 43.42882 -79.82477 4161 ft 200 kts 264°
2026-05-06 15:40 43.43064 -79.84327 4030 ft 193 kts 286°
2026-05-06 15:40 43.43499 -79.86023 3930 ft 184 kts 289°
2026-05-06 15:40 43.43993 -79.87641 3788 ft 184 kts 300°
2026-05-06 15:40 43.44550 -79.88510 3691 ft 185 kts 321°
2026-05-06 15:41 43.45748 -79.89127 3566 ft 188 kts 355°
2026-05-06 15:41 43.47005 -79.88676 3474 ft 191 kts 32°
2026-05-06 15:41 43.48026 -79.87439 3470 ft 201 kts 42°
2026-05-06 15:41 43.49052 -79.86115 3445 ft 203 kts 41°
2026-05-06 15:42 43.50083 -79.84786 3400 ft 203 kts 42°
2026-05-06 15:42 43.51167 -79.83544 3349 ft 202 kts 36°
2026-05-06 15:42 43.52244 -79.82297 3295 ft 202 kts 42°
2026-05-06 15:42 43.53216 -79.80976 3241 ft 190 kts 45°
2026-05-06 15:43 43.54117 -79.79691 3226 ft 185 kts 45°
2026-05-06 15:43 43.55001 -79.78419 3193 ft 184 kts 45°
2026-05-06 15:43 43.55879 -79.77152 3104 ft 182 kts 45°
2026-05-06 15:43 43.56752 -79.75892 3020 ft 181 kts 45°
2026-05-06 15:44 43.57597 -79.74669 2951 ft 172 kts 46°
2026-05-06 15:44 43.58411 -79.73493 2778 ft 168 kts 46°
2026-05-06 15:44 43.59208 -79.72340 2567 ft 165 kts 46°
2026-05-06 15:44 43.59997 -79.71198 2348 ft 163 kts 46°
2026-05-06 15:45 43.60777 -79.70070 2125 ft 162 kts 46°
2026-05-06 15:45 43.61551 -79.68949 1903 ft 161 kts 46°
2026-05-06 15:45 43.62295 -79.67870 1703 ft 148 kts 46°
2026-05-06 15:45 43.62981 -79.66876 1473 ft 139 kts 46°
2026-05-06 15:46 43.63642 -79.65918 1266 ft 137 kts 47°
2026-05-06 15:46 43.64294 -79.64974 1064 ft 136 kts 49°
2026-05-06 15:46 43.64938 -79.64050 913 ft 136 kts 47°
2026-05-06 15:46 43.65589 -79.63111 721 ft 135 kts 51°
2026-05-06 15:47 43.66235 -79.62170 597 ft 135 kts 49°
2026-05-06 15:47 43.66817 -79.61308 574 ft 102 kts 46°
2026-05-06 15:47 43.67210 -79.60746 570 ft 68 kts 46°
2026-05-06 15:47 43.67436 -79.60462 575 ft 30 kts 24°
2026-05-06 15:48 43.67564 -79.60409 576 ft 12 kts 14°
2026-05-06 15:48 43.67629 -79.60384 575 ft 9 kts 15°
2026-05-06 15:48 43.67690 -79.60355 573 ft 10 kts 25°
2026-05-06 15:48 43.67750 -79.60315 571 ft 10 kts 358°
2026-05-06 15:49 43.67776 -79.60384 572 ft 9 kts 244°
2026-05-06 15:49 43.67741 -79.60438 575 ft 6 kts 226°
2026-05-06 15:49 43.67718 -79.60472 576 ft 4 kts 226°
2026-05-06 15:49 43.67696 -79.60503 575 ft 5 kts 226°
2026-05-06 15:50 43.67670 -79.60542 571 ft 6 kts 228°
2026-05-06 15:50 43.67654 -79.60607 570 ft 9 kts 275°
2026-05-06 15:50 43.67696 -79.60672 568 ft 10 kts 331°
2026-05-06 15:50 43.67753 -79.60730 569 ft 11 kts 316°
2026-05-06 15:51 43.67803 -79.60797 571 ft 9 kts 316°
2026-05-06 15:51 43.67845 -79.60852 568 ft 7 kts 316°
2026-05-06 15:51 43.67874 -79.60895 570 ft 5 kts 310°
2026-05-06 15:51 43.67906 -79.60949 571 ft 7 kts 307°
2026-05-06 15:52 43.67933 -79.61006 573 ft 7 kts 298°
2026-05-06 15:52 43.67941 -79.61053 570 ft 2 kts 274°
2026-05-06 15:52 43.67941 -79.61066 563 ft 0 kts 273°